Weather History for KETB - November, 2013

Change the Weather History Date:

Sunday, November 10, 2013

  Actual Average Record
Temperature  
Mean Temperature 40 °F -  
Max Temperature 44 °F 44 °F 69 °F (1930)
Min Temperature 35 °F 30 °F 5 °F (1998)
Degree Days  
Heating Degree Days 26    
Moisture  
Dew Point 27 °F    
Average Humidity 59    
Maximum Humidity 70    
Minimum Humidity 46    
Precipitation  
Precipitation 0.00 in - - ()
Sea Level Pressure  
Sea Level Pressure 30.18 in    
Wind  
Wind Speed 12 mph (West)    
Max Wind Speed 18 mph    
Max Gust Speed 30 mph    
Visibility 10 miles    
Events      
Averages and records for this station are not official NWS values.
T = Trace of Precipitation, MM = Missing Value Source: NWS Daily Summary

Daily Weather History Graph

Daily Weather History Graph

Search for Another Location

Airport or City:

Trip Planner

Search our weather history database for the weather conditions in past years. The results will help you decide how hot, cold, wet, or windy it might be!

Date:

Astronomy

Nov. 10, 2013 Rise Set
Actual Time 6:39 AM CST 4:32 PM CST
Civil Twilight 6:09 AM CST 5:02 PM CST
Nautical Twilight 5:35 AM CST 5:37 PM CST
Astronomical Twilight 5:01 AM CST 6:10 PM CST
Moon 12:49 PM CST (11/10) No Moon Set
Length of Visible Light 10h 53m
Length of Day
9h 52m
First Quarter, 56% of the Moon is Illuminated
Nov 10
First Quarter
Nov 17
Full
Nov 25
Last Quarter
Dec 2
New
Dec 9
First Quarter

Hourly Weather History & Observations

Time (CST) Temp. Windchill Dew Point Humidity Pressure Visibility Wind Dir Wind Speed Gust Speed Precip Events Conditions
12:15 AM 37.4 °F 29.3 °F 24.8 °F 60% 30.03 in 10.0 mi West 12.7 mph 20.7 mph N/A   Overcast
12:35 AM 37.4 °F 28.2 °F 24.8 °F 60% 30.03 in 10.0 mi West 16.1 mph 21.9 mph N/A   Overcast
12:55 AM 37.4 °F 27.5 °F 26.6 °F 65% 30.04 in 10.0 mi West 18.4 mph 24.2 mph N/A   Overcast
1:15 AM 37.4 °F 28.2 °F 26.6 °F 65% 30.05 in 10.0 mi WNW 16.1 mph 24.2 mph N/A   Overcast
1:35 AM 37.4 °F 27.8 °F 26.6 °F 65% 30.06 in 10.0 mi WNW 17.3 mph 29.9 mph N/A   Overcast
1:55 AM 37.4 °F 28.9 °F 26.6 °F 65% 30.06 in 10.0 mi West 13.8 mph 23.0 mph N/A   Overcast
2:15 AM 37.4 °F 28.9 °F 26.6 °F 65% 30.07 in 10.0 mi West 13.8 mph 19.6 mph N/A   Mostly Cloudy
2:35 AM 37.4 °F 27.5 °F 26.6 °F 65% 30.06 in 10.0 mi West 18.4 mph 24.2 mph N/A   Overcast
2:55 AM 37.4 °F 28.5 °F 26.6 °F 65% 30.07 in 10.0 mi WNW 15.0 mph 23.0 mph N/A   Overcast
3:15 AM 37.4 °F 29.8 °F 26.6 °F 65% 30.08 in 10.0 mi West 11.5 mph 21.9 mph N/A   Overcast
3:35 AM 37.4 °F 29.3 °F 26.6 °F 65% 30.08 in 10.0 mi West 12.7 mph 19.6 mph N/A   Overcast
3:55 AM 37.4 °F 28.9 °F 26.6 °F 65% 30.09 in 10.0 mi WNW 13.8 mph 27.6 mph N/A   Overcast
4:15 AM 37.4 °F 28.5 °F 26.6 °F 65% 30.11 in 10.0 mi West 15.0 mph 27.6 mph N/A   Overcast
4:35 AM 37.4 °F 28.9 °F 26.6 °F 65% 30.12 in 10.0 mi WNW 13.8 mph 19.6 mph N/A   Overcast
4:55 AM 37.4 °F 28.5 °F 26.6 °F 65% 30.14 in 10.0 mi WNW 15.0 mph 23.0 mph N/A   Overcast
5:15 AM 37.4 °F 28.5 °F 26.6 °F 65% 30.15 in 10.0 mi WNW 15.0 mph 24.2 mph N/A   Overcast
5:35 AM 37.4 °F 29.3 °F 26.6 °F 65% 30.15 in 10.0 mi WNW 12.7 mph 25.3 mph N/A   Overcast
5:55 AM 37.4 °F 28.9 °F 26.6 °F 65% 30.16 in 10.0 mi WNW 13.8 mph 23.0 mph N/A   Overcast
6:15 AM 37.4 °F 29.8 °F 26.6 °F 65% 30.16 in 10.0 mi WNW 11.5 mph 19.6 mph N/A   Mostly Cloudy
6:35 AM 37.4 °F 29.3 °F 26.6 °F 65% 30.17 in 10.0 mi WNW 12.7 mph - N/A   Scattered Clouds
6:55 AM 35.6 °F 27.1 °F 26.6 °F 70% 30.19 in 10.0 mi WNW 12.7 mph 18.4 mph N/A   Clear
7:15 AM 37.4 °F 29.3 °F 26.6 °F 65% 30.21 in 10.0 mi WNW 12.7 mph 17.3 mph N/A   Mostly Cloudy
7:55 AM 37.4 °F 30.8 °F 26.6 °F 65% 30.24 in 10.0 mi WNW 9.2 mph 17.3 mph N/A   Overcast
8:15 AM 39.2 °F 32.0 °F 26.6 °F 61% 30.24 in 10.0 mi WNW 11.5 mph 23.0 mph N/A   Mostly Cloudy
8:35 AM 39.2 °F 31.2 °F 26.6 °F 61% 30.24 in 10.0 mi NW 13.8 mph 21.9 mph N/A   Scattered Clouds
8:55 AM 41.0 °F 34.3 °F 26.6 °F 57% 30.25 in 10.0 mi NW 11.5 mph 18.4 mph N/A   Clear
9:15 AM 41.0 °F 33.1 °F 26.6 °F 57% 30.25 in 10.0 mi NW 15.0 mph 19.6 mph N/A   Clear
9:35 AM 41.0 °F 33.9 °F 24.8 °F 53% 30.26 in 10.0 mi WNW 12.7 mph 21.9 mph N/A   Scattered Clouds
9:55 AM 42.8 °F 35.8 °F 26.6 °F 53% 30.27 in 10.0 mi WNW 13.8 mph 20.7 mph N/A   Mostly Cloudy
10:15 AM 41.0 °F 32.8 °F 24.8 °F 53% 30.27 in 10.0 mi WNW 16.1 mph 21.9 mph N/A   Scattered Clouds
10:35 AM 42.8 °F 36.6 °F 26.6 °F 53% 30.28 in 10.0 mi WNW 11.5 mph - N/A   Clear
10:55 AM 42.8 °F 37.0 °F 26.6 °F 53% 30.28 in 10.0 mi NW 10.4 mph - N/A   Scattered Clouds
11:15 AM 42.8 °F 37.5 °F 26.6 °F 53% 30.27 in 10.0 mi WNW 9.2 mph 17.3 mph N/A   Scattered Clouds
11:35 AM 42.8 °F 36.6 °F 26.6 °F 53% 30.27 in 10.0 mi West 11.5 mph - N/A   Clear
11:55 AM 42.8 °F 37.5 °F 23.0 °F 46% 30.27 in 10.0 mi WNW 9.2 mph - N/A   Clear
12:15 PM 44.6 °F 39.7 °F 24.8 °F 46% 30.26 in 10.0 mi West 9.2 mph 16.1 mph N/A   Clear
12:35 PM 44.6 °F 39.2 °F 26.6 °F 49% 30.26 in 10.0 mi West 10.4 mph 17.3 mph N/A   Scattered Clouds
12:55 PM 44.6 °F 38.8 °F 26.6 °F 49% 30.26 in 10.0 mi WNW 11.5 mph - N/A   Scattered Clouds
1:15 PM 44.6 °F 39.2 °F 26.6 °F 49% 30.25 in 10.0 mi West 10.4 mph - N/A   Clear
1:35 PM 44.6 °F 39.7 °F 26.6 °F 49% 30.25 in 10.0 mi WNW 9.2 mph - N/A   Clear
1:55 PM 44.6 °F 42.2 °F 26.6 °F 49% 30.24 in 10.0 mi SSW 4.6 mph - N/A   Clear
2:15 PM 44.6 °F 39.7 °F 24.8 °F 46% 30.24 in 10.0 mi West 9.2 mph - N/A   Clear
2:35 PM 44.6 °F 41.4 °F 24.8 °F 46% 30.24 in 10.0 mi WSW 5.8 mph - N/A   Clear
2:55 PM 44.6 °F 39.7 °F 24.8 °F 46% 30.24 in 10.0 mi West 9.2 mph - N/A   Clear
3:15 PM 44.6 °F 40.7 °F 26.6 °F 49% 30.23 in 10.0 mi SW 6.9 mph - N/A   Clear
3:35 PM 44.6 °F 39.7 °F 24.8 °F 46% 30.23 in 10.0 mi SW 9.2 mph - N/A   Clear
3:55 PM 42.8 °F 38.0 °F 24.8 °F 49% 30.23 in 10.0 mi SW 8.1 mph - N/A   Clear
4:15 PM 42.8 °F 38.6 °F 26.6 °F 53% 30.23 in 10.0 mi WSW 6.9 mph - N/A   Clear
4:35 PM 41.0 °F 38.0 °F 24.8 °F 53% 30.23 in 10.0 mi WSW 4.6 mph - N/A   Clear
4:55 PM 41.0 °F 38.0 °F 26.6 °F 57% 30.23 in 10.0 mi WSW 4.6 mph - N/A   Clear
5:15 PM 41.0 °F - 24.8 °F 53% 30.23 in 10.0 mi Calm Calm - N/A   Clear
5:35 PM 41.0 °F - 26.6 °F 57% 30.23 in 10.0 mi Calm Calm - N/A   Clear
5:55 PM 41.0 °F - 26.6 °F 57% 30.22 in 10.0 mi Calm Calm - N/A   Scattered Clouds
6:15 PM 41.0 °F - 26.6 °F 57% 30.22 in 10.0 mi Calm Calm - N/A   Mostly Cloudy
6:35 PM 39.2 °F - 28.4 °F 65% 30.21 in 10.0 mi Calm Calm - N/A   Overcast
6:55 PM 41.0 °F 39.0 °F 28.4 °F 61% 30.20 in 10.0 mi SSW 3.5 mph - N/A   Overcast
7:15 PM 41.0 °F 38.0 °F 28.4 °F 61% 30.20 in 10.0 mi SSW 4.6 mph - N/A   Overcast
7:35 PM 41.0 °F 35.8 °F 28.4 °F 61% 30.20 in 10.0 mi SW 8.1 mph - N/A   Overcast
7:55 PM 42.8 °F 36.6 °F 28.4 °F 57% 30.19 in 10.0 mi SW 11.5 mph - N/A   Overcast
8:15 PM 42.8 °F 39.3 °F 28.4 °F 57% 30.17 in 10.0 mi SW 5.8 mph 10.4 mph N/A   Overcast
8:35 PM 41.0 °F 37.1 °F 28.4 °F 61% 30.17 in 10.0 mi SW 5.8 mph - N/A   Overcast
8:55 PM 41.0 °F 38.0 °F 28.4 °F 61% 30.17 in 10.0 mi SW 4.6 mph - N/A   Overcast
9:15 PM 41.0 °F 39.0 °F 28.4 °F 61% 30.17 in 10.0 mi SW 3.5 mph - N/A   Overcast
9:35 PM 41.0 °F 37.1 °F 28.4 °F 61% 30.16 in 10.0 mi SW 5.8 mph - N/A   Overcast
9:55 PM 41.0 °F 36.4 °F 28.4 °F 61% 30.16 in 10.0 mi SW 6.9 mph - N/A   Overcast
10:15 PM 41.0 °F 39.0 °F 30.2 °F 65% 30.17 in 10.0 mi WSW 3.5 mph - N/A   Overcast
10:35 PM 41.0 °F 36.4 °F 30.2 °F 65% 30.15 in 10.0 mi SW 6.9 mph - N/A   Overcast
10:55 PM 41.0 °F 35.2 °F 30.2 °F 65% 30.14 in 10.0 mi SW 9.2 mph - N/A   Overcast
11:15 PM 41.0 °F 35.8 °F 30.2 °F 65% 30.12 in 10.0 mi SW 8.1 mph - N/A   Overcast
11:35 PM 41.0 °F 35.2 °F 30.2 °F 65% 30.14 in 10.0 mi WSW 9.2 mph - N/A   Overcast
11:55 PM 41.0 °F 35.2 °F 30.2 °F 65% 30.12 in 10.0 mi SW 9.2 mph - N/A   Overcast